Location: Franzen
(48.6167°N, 15.3833°E)
Time: 13:11:52
(UTC+00:00)

Meteor 2-14 Rocket - Pass Details

Date: 22 April 2021
Orbit: 937 x 957 km, 82.5° (Epoch: 16 May)

Event Time Altitude Azimuth Distance (km) Brightness Sun altitude
Rises 19:06:40 0° 351° (N) 3,610 8.1 -10.6°
Reaches altitude 10° 19:09:12 10° 355° (N) 2,661 7.4 -11.0°
Maximum altitude 19:15:15 68° 78° (ENE) 1,011 4.4 -11.8°
Enters shadow 19:21:14 10° 161° (SSE) 2,639 6.3 -12.6°
